Wetbulb
41.68 41.46 39.78 38.85 38.11 37.54 36.30 35.83 35.75 35.59 35.17 35.04 34.79 34.41 33.29 32.28 31.41 30.86 29.80 28.95 27.52 26.39 25.89 25.34 24.86 24.62 24.04 24.56 27.29 29.02 32.74 33.44 29.88 33.90 33.19 33.44 32.86 28.74 28.96 30.33 31.57 29.40 29.24
40.38 39.37 38.07 37.20 36.81 35.63 35.11 35.22 35.48 34.53 34.94 34.98 34.86 33.80 32.96 32.05 31.46 30.29 29.33 28.46 26.76 25.13 24.51 24.07 23.65 25.36 22.21 22.46 21.07 26.75 28.44 33.22 32.44 28.36 31.01 32.19 30.32 30.83 29.96 26.73 30.85 31.28 28.56
38.77 37.42 36.81 36.00 35.51 34.57 34.41 34.61 34.88 34.64 34.34 34.23 33.31 32.75 32.08 30.99 29.63 28.77 28.82 27.91 26.79 25.13 24.12 23.40 22.82 22.26 20.79 18.99 18.83 17.93 20.67 27.94 26.68 23.29 19.63 23.37 27.71 24.94 26.84 29.76 27.55 27.45 29.16
37.71 36.84 35.77 35.71 35.34 35.02 34.67 34.48 34.19 34.04 33.10 32.71 32.64 31.89 31.02 30.44 29.78 29.25 28.22 27.16 26.17 25.72 25.50 24.31 22.61 21.36 16.42 18.39 20.27 15.77 20.08 20.24 19.91 18.83 18.16 19.68 20.74 22.73 22.62 23.77 25.49 24.91 24.23
35.64 35.37 34.45 35.42 35.41 35.22 34.29 34.22 33.97 33.33 32.60 32.31 31.34 30.16 29.40 28.51 29.49 29.01 28.33 26.99 25.10 24.74 25.60 25.37 25.29 26.39 27.68 24.15 20.54 15.16 18.11 17.15 16.87 16.32 14.45 13.41 12.03 16.69 15.32 19.02 20.44 25.62 21.10
34.62 33.55 34.68 34.81 34.59 34.98 34.72 34.04 33.19 32.39 31.92 31.57 28.90 28.18 27.99 29.06 32.39 31.56 28.82 26.73 25.47 24.17 22.71 22.58 24.69 26.95 26.18 26.77 26.70 25.71 21.36 15.77 11.62 14.29 12.13 9.61 6.84 10.33 13.01 18.08 14.05 15.61 16.28
34.10 33.70 33.67 33.79 33.73 34.18 34.38 33.30 32.51 31.74 31.37 28.65 26.48 26.36 26.17 27.27 31.57 30.80 28.99 25.31 22.44 20.35 21.28 22.14 23.18 24.89 24.48 23.60 25.33 25.83 25.68 24.93 22.87 19.21 15.52 11.53 12.91 12.63 17.17 21.60 19.21 18.23 17.08
33.75 33.77 33.52 33.52 33.51 32.99 33.01 32.20 31.55 30.71 28.34 26.31 24.37 25.05 25.39 27.18 31.11 29.68 26.33 18.11 15.91 11.44 9.29 9.94 12.77 12.58 19.89 23.20 22.75 20.34 17.07 17.94 18.71 20.71 12.24 11.21 13.10 16.26 19.71 21.90 22.56 20.65 19.82
34.13 33.82 33.85 33.55 32.80 32.63 32.05 31.34 30.29 28.39 26.10 24.66 24.74 24.40 24.94 27.41 30.17 28.05 22.60 16.74 12.89 7.97 8.05 7.18 6.71 7.12 24.84 25.33 14.08 9.91 8.43 8.60 22.81 26.50 25.10 24.85 24.58 24.35 21.74 19.61 15.69 21.97 15.50
34.35 34.20 34.51 34.36 33.09 32.14 31.47 30.27 29.34 28.24 26.28 25.14 22.18 22.10 25.61 22.01 29.83 27.73 23.92 21.11 17.49 16.89 13.93 14.40 23.46 16.71 25.50 24.18 13.98 12.10 9.42 7.98 6.14 7.21 7.88 10.82 11.17 12.62 20.93 10.26 10.79 11.22 3.32
34.32 34.00 33.65 33.87 32.61 31.93 30.21 29.31 28.42 27.56 26.90 24.77 22.48 20.05 21.79 22.36 26.24 29.13 26.68 21.53 19.28 18.56 16.78 13.05 12.69 24.73 24.94 24.71 21.52 10.74 11.54 6.48 8.10 3.81 2.89 3.01 2.75 3.34 4.83 5.08 0.26 6.04 0.79
32.16 31.71 31.66 31.61 30.99 30.44 29.21 28.87 28.73 27.33 25.91 25.63 24.28 22.79 22.71 23.22 25.98 28.58 28.92 27.14 23.89 19.37 14.46 13.38 12.95 24.17 24.33 24.13 17.87 24.03 24.43 10.93 4.75 3.49 3.09 3.75 3.31 3.93 4.28 5.01 3.70 3.00 1.10
30.68 30.21 30.06 30.48 30.31 30.30 28.92 28.32 27.46 26.75 25.16 24.93 25.22 23.64 21.38 22.89 21.91 27.19 28.52 28.74 28.21 21.27 16.84 16.56 22.74 23.77 23.74 21.41 23.84 22.79 13.56 10.50 5.92 4.46 2.67 2.76 2.54 6.36 7.77 10.75 14.59 16.55 15.46
30.12 29.38 29.39 29.14 29.08 29.31 29.27 28.90 27.42 25.43 24.65 25.08 24.44 24.10 23.60 20.68 19.15 16.53 19.00 24.81 24.09 18.69 19.10 17.85 14.34 15.64 9.40 7.98 12.55 13.04 9.32 7.50 8.24 5.80 5.91 6.32 11.60 13.66 14.33 15.43 14.23 14.52 13.69
29.63 28.86 28.50 28.94 28.63 28.26 28.84 28.26 27.68 27.48 26.76 25.04 24.91 24.32 23.71 20.00 17.31 19.61 18.41 14.62 13.50 16.03 10.77 10.20 10.22 11.84 12.21 12.97 11.66 11.30 11.84 12.84 10.45 6.96 8.25 9.89 12.09 14.08 14.95 15.48 15.74 14.09 9.28
28.86 28.50 28.11 28.48 28.50 28.57 27.71 27.62 30.54 29.41 29.31 29.12 28.54 26.49 25.90 25.29 24.99 24.89 24.83 24.01 23.38 19.73 13.03 6.91 3.15 2.79 7.28 10.33 9.29 7.77 7.06 8.22 8.96 10.71 8.76 11.28 11.62 11.49 13.20 14.11 13.65 10.46 9.28
29.37 28.66 28.41 28.41 28.17 27.87 27.38 26.92 26.28 29.31 30.98 30.95 30.28 29.62 28.45 27.01 26.85 26.85 26.01 24.85 23.79 21.30 9.02 6.97 4.49 5.01 9.06 14.69 13.48 10.41 6.87 7.14 11.82 10.49 8.13 6.97 9.49 12.29 11.41 12.07 11.11 11.46 10.97
29.57 29.19 28.53 28.05 27.69 27.69 27.31 28.04 27.72 26.89 26.19 26.82 30.25 29.99 29.62 29.07 28.34 27.90 26.71 25.64 22.74 21.29 13.22 10.42 9.55 10.61 13.82 14.86 14.31 12.65 11.01 10.41 11.02 8.92 3.39 0.58 -0.31 6.99 7.13 9.03 8.69 3.32 7.65
28.60 27.66 27.52 27.52 27.41 26.90 26.44 24.83 23.19 21.58 22.37 23.95 25.25 26.81 29.88 30.18 29.05 28.83 28.32 13.80 14.95 13.81 14.12 16.49 16.17 16.73 15.98 15.97 12.81 10.74 8.77 7.28 4.76 0.91 1.48 2.19 -5.66 4.84 4.38 5.72 5.96 4.09 5.79
27.91 26.34 25.86 26.13 25.41 25.67 24.27 23.04 21.60 20.86 20.91 22.57 21.59 17.42 21.51 24.67 24.62 22.03 11.61 4.65 8.44 12.81 15.10 17.38 18.03 16.70 15.50 13.07 9.74 7.78 4.29 3.80 2.79 3.33 -5.06 -7.84 -7.85 0.40 0.25 1.71 0.30 2.55 8.00
27.41 26.78 26.37 25.98 25.58 25.69 25.49 24.51 23.38 22.47 21.49 20.73 18.51 18.50 18.76 19.85 13.40 14.74 12.87 10.09 12.60 15.28 15.31 16.17 15.56 14.17 14.09 12.49 12.23 9.30 10.14 7.53 4.40 3.86 2.42 -1.12 -10.41 -0.60 2.14 2.70 1.94 5.34 7.66
27.92 27.56 27.40 26.80 26.53 25.69 25.56 25.36 24.05 22.93 22.61 20.29 17.88 18.30 18.20 17.31 16.92 17.24 16.65 16.39 15.96 16.76 17.15 16.28 14.25 13.97 14.14 14.16 12.98 8.67 6.54 4.00 -0.74 1.22 -2.45 -2.58 -0.05 -0.31 0.01 0.37 -1.98 -1.44 3.70
27.62 27.68 27.84 27.70 27.58 25.51 25.52 25.71 24.04 23.73 22.62 21.16 20.21 19.47 19.48 18.58 18.35 17.91 17.24 14.97 15.39 14.31 13.92 14.27 12.88 11.13 7.77 6.87 9.97 9.93 8.46 5.52 3.05 0.97 -1.87 -5.32 -2.19 -2.77 -4.66 -3.95 -2.56 -4.26 -3.64
28.81 27.79 27.23 26.28 26.82 27.28 27.67 26.74 25.40 24.54 23.86 22.24 21.54 20.87 20.17 19.96 18.89 18.54 17.84 15.62 14.45 12.90 13.33 13.52 12.73 10.29 7.13 2.12 5.82 6.63 5.15 0.02 0.58 -0.55 -2.09 -2.56 -2.17 -1.69 -6.19 -4.18 -3.92 -7.47 -7.67
27.19 25.89 25.69 24.89 25.63 26.25 25.92 25.53 25.17 24.76 24.53 23.94 22.34 22.11 21.52 21.03 19.23 18.39 17.86 16.60 15.09 13.07 10.52 10.70 11.35 10.71 6.50 4.66 4.26 4.13 3.21 0.65 -4.21 -5.84 -5.69 -5.48 -6.91 -8.12 -8.24 -6.87 -8.15 -5.29 -8.45
25.73 25.70 25.47 25.67 25.67 25.12 25.06 25.38 24.84 24.81 24.05 22.61 22.36 22.31 21.50 20.62 20.01 18.99 17.65 15.90 14.35 13.68 12.61 10.74 9.58 8.24 6.17 4.97 4.74 2.02 -0.83 -1.02 -4.66 -5.15 -1.88 -0.98 -4.92 -8.15 -8.02 -7.76 -8.11 -7.94 -4.52
MSLP
1008.91 1009.71 1010.63 1012.43 1013.18 1014.55 1015.43 1016.80 1017.48 1018.36 1018.94 1019.74 1020.17 1020.81 1020.69 1021.24 1021.86 1022.16 1022.78 1023.05 1023.19 1023.88 1024.18 1024.65 1025.11 1025.42 1025.45 1024.86 1024.36 1024.25 1023.97 1023.86 1023.62 1023.17 1023.32 1023.20 1022.90 1022.90 1022.54 1021.96 1021.39 1021.01 1020.44
1008.53 1009.75 1010.72 1010.92 1013.62 1014.75 1015.77 1016.83 1017.76 1018.25 1019.04 1019.34 1020.33 1020.50 1020.83 1021.39 1021.99 1022.45 1023.01 1023.21 1023.49 1024.13 1024.79 1025.10 1025.62 1025.89 1025.72 1025.05 1024.74 1024.58 1024.39 1024.01 1023.69 1023.81 1023.84 1023.44 1023.42 1022.96 1022.79 1022.47 1021.86 1021.23 1020.80
1009.18 1010.05 1011.33 1012.01 1013.10 1014.59 1015.78 1016.77 1017.56 1018.30 1018.90 1019.66 1020.19 1020.39 1020.88 1021.62 1022.23 1022.61 1023.00 1023.26 1023.81 1024.51 1025.20 1025.63 1026.09 1026.13 1025.75 1025.24 1025.15 1025.10 1024.94 1024.53 1024.23 1024.63 1024.83 1024.22 1023.78 1023.59 1022.97 1022.60 1022.39 1022.01 1021.36
1009.46 1010.51 1011.61 1012.42 1013.38 1014.74 1016.09 1016.90 1017.73 1018.35 1019.15 1019.95 1020.25 1020.34 1021.09 1021.58 1022.15 1022.61 1022.99 1023.39 1024.13 1024.82 1025.43 1026.02 1026.31 1026.03 1025.74 1025.43 1025.28 1025.37 1025.24 1025.13 1025.28 1025.44 1025.45 1025.40 1024.99 1024.27 1023.83 1023.32 1022.85 1022.71 1022.35
1009.61 1010.80 1011.86 1012.82 1013.84 1014.84 1016.04 1017.22 1018.05 1018.61 1019.50 1019.95 1020.28 1020.61 1021.40 1021.55 1022.25 1022.54 1022.86 1023.57 1024.43 1025.08 1025.65 1026.21 1026.17 1025.53 1025.25 1025.24 1025.24 1025.66 1025.50 1025.65 1026.02 1026.21 1026.33 1026.26 1026.04 1025.53 1025.03 1024.25 1023.50 1022.91 1023.04
1009.42 1010.86 1011.98 1013.03 1014.11 1014.86 1015.96 1017.31 1017.80 1019.22 1019.77 1020.35 1020.58 1020.79 1021.29 1021.57 1022.15 1022.38 1022.81 1023.66 1024.68 1025.30 1026.04 1026.40 1025.98 1025.56 1025.67 1025.47 1025.22 1025.39 1025.78 1026.13 1026.38 1026.57 1026.85 1027.04 1026.63 1026.15 1025.61 1024.79 1024.11 1023.82 1023.74
1009.59 1010.51 1011.98 1013.06 1013.98 1015.04 1016.15 1016.37 1018.23 1018.56 1020.04 1020.66 1020.91 1021.07 1021.42 1021.71 1022.18 1022.59 1023.31 1024.07 1024.88 1025.71 1026.38 1026.71 1026.47 1025.70 1025.98 1025.90 1025.74 1025.71 1025.87 1026.19 1026.31 1026.60 1026.91 1026.92 1026.64 1026.16 1025.64 1024.83 1024.57 1024.47 1024.71
1010.00 1010.67 1011.40 1013.09 1014.17 1014.96 1015.95 1017.11 1017.30 1018.90 1019.99 1020.75 1021.11 1021.40 1021.63 1021.94 1022.39 1023.13 1023.80 1024.70 1025.58 1026.20 1026.93 1027.45 1026.89 1026.32 1026.27 1025.94 1026.10 1026.41 1026.79 1027.12 1026.84 1026.65 1027.05 1027.06 1026.65 1025.83 1025.38 1024.72 1024.56 1024.78 1024.88
1010.04 1010.72 1011.04 1012.15 1013.68 1014.75 1015.97 1015.96 1017.97 1019.10 1019.87 1020.49 1021.16 1021.61 1021.76 1022.19 1022.71 1023.44 1024.33 1025.12 1025.92 1026.65 1027.37 1027.41 1027.27 1026.51 1025.66 1025.93 1026.27 1026.97 1027.24 1027.46 1026.59 1026.30 1026.37 1026.32 1026.08 1025.39 1024.99 1024.93 1025.13 1025.11 1025.70
1009.63 1010.63 1011.17 1011.75 1013.06 1014.69 1014.99 1016.92 1018.07 1018.95 1019.61 1020.44 1021.37 1021.81 1022.07 1022.34 1022.74 1023.66 1024.58 1025.31 1026.21 1026.84 1027.18 1026.94 1026.06 1026.28 1025.66 1026.12 1026.60 1027.13 1027.69 1027.98 1027.71 1027.34 1027.58 1027.26 1027.11 1026.65 1025.83 1025.96 1025.86 1026.03 1026.61
1009.30 1010.39 1011.37 1012.09 1013.15 1014.44 1015.83 1017.18 1017.91 1018.76 1019.60 1020.66 1021.50 1022.08 1022.41 1022.76 1022.86 1023.24 1024.39 1025.30 1025.92 1026.58 1027.01 1026.76 1026.51 1025.65 1025.71 1026.05 1026.61 1027.09 1027.25 1028.12 1028.23 1028.07 1027.98 1028.25 1027.96 1027.70 1027.31 1026.87 1026.94 1026.39 1026.53
1008.34 1010.11 1011.43 1012.45 1013.54 1014.64 1015.72 1017.01 1017.70 1018.60 1019.61 1020.63 1021.51 1022.34 1022.87 1023.19 1023.26 1023.34 1023.87 1024.80 1025.83 1026.47 1026.86 1026.71 1026.29 1025.54 1025.67 1026.04 1026.95 1026.40 1026.43 1027.64 1028.33 1028.39 1028.54 1028.70 1028.28 1027.89 1027.80 1027.36 1027.08 1026.99 1026.96
1009.75 1010.07 1011.35 1012.45 1013.58 1014.45 1015.62 1016.86 1017.68 1018.53 1019.43 1020.33 1021.10 1021.87 1022.63 1022.96 1023.12 1023.30 1023.76 1024.24 1025.04 1026.16 1026.53 1026.43 1025.96 1025.83 1025.81 1026.13 1026.31 1026.73 1027.37 1027.84 1028.29 1029.04 1029.15 1028.91 1028.08 1027.84 1027.53 1027.34 1026.94 1026.67 1026.55
1009.79 1010.53 1011.42 1012.44 1013.51 1014.77 1015.74 1016.41 1017.08 1017.99 1019.14 1019.85 1020.38 1021.24 1022.10 1022.73 1023.04 1023.38 1023.91 1024.17 1024.94 1025.96 1026.11 1026.16 1026.51 1026.84 1027.41 1027.44 1027.32 1027.46 1027.88 1028.19 1028.29 1028.77 1028.75 1028.28 1027.80 1027.31 1027.26 1027.07 1027.20 1027.22 1027.16
1009.98 1010.95 1011.71 1012.56 1013.18 1014.23 1015.34 1015.93 1016.54 1017.60 1018.26 1019.02 1019.65 1020.58 1021.34 1022.26 1022.75 1023.29 1023.79 1024.33 1024.75 1025.52 1026.52 1026.80 1027.05 1027.37 1027.77 1027.87 1027.91 1027.87 1028.05 1028.11 1028.38 1028.59 1028.55 1028.45 1028.21 1027.85 1027.73 1027.42 1027.41 1027.49 1027.76
1009.75 1010.75 1011.48 1012.16 1013.12 1014.31 1015.43 1016.22 1016.86 1017.48 1018.10 1018.70 1019.29 1020.16 1020.98 1021.51 1022.22 1022.80 1023.52 1024.16 1024.49 1025.22 1025.91 1026.53 1026.87 1027.37 1027.72 1028.05 1028.33 1028.49 1028.27 1028.28 1028.48 1028.65 1028.79 1028.77 1028.69 1028.42 1028.20 1028.04 1027.99 1028.19 1028.24
1009.65 1010.69 1011.20 1012.37 1013.08 1013.98 1015.13 1015.76 1016.52 1017.57 1017.86 1018.25 1018.96 1019.68 1020.36 1020.81 1021.57 1022.32 1022.93 1023.55 1024.06 1024.74 1025.69 1026.23 1026.49 1026.74 1026.96 1027.17 1027.76 1028.20 1028.70 1028.45 1028.47 1028.71 1029.01 1029.11 1028.94 1028.72 1028.61 1028.63 1028.64 1028.65 1028.67
1009.81 1010.68 1011.40 1012.31 1013.21 1014.13 1014.85 1015.46 1016.36 1017.01 1017.63 1018.33 1018.72 1019.28 1020.01 1020.46 1021.22 1022.06 1022.57 1023.03 1023.70 1024.35 1025.14 1025.70 1025.93 1026.24 1026.41 1026.67 1027.34 1027.88 1028.31 1028.58 1028.80 1028.99 1029.25 1029.42 1029.32 1029.26 1029.30 1029.20 1029.17 1029.07 1028.92
1010.21 1011.12 1011.87 1012.68 1013.36 1013.96 1014.75 1015.65 1016.62 1017.43 1018.02 1018.65 1019.10 1019.47 1019.86 1020.43 1021.13 1021.81 1022.38 1023.09 1023.84 1024.42 1024.99 1025.22 1025.27 1025.55 1025.86 1026.33 1026.86 1027.55 1028.01 1028.49 1028.79 1029.18 1029.50 1029.66 1029.68 1029.58 1029.83 1029.59 1029.49 1029.44 1029.31
1010.57 1011.23 1011.91 1012.68 1013.42 1014.20 1015.10 1015.99 1016.80 1017.51 1018.21 1018.75 1019.40 1019.87 1020.22 1020.70 1021.18 1021.82 1022.58 1023.31 1023.94 1024.40 1024.53 1024.72 1024.95 1025.23 1025.69 1026.12 1026.86 1027.42 1028.01 1028.52 1028.92 1029.23 1029.60 1029.84 1029.95 1029.90 1030.06 1029.99 1029.91 1029.82 1029.60
1010.72 1011.42 1011.91 1012.77 1013.58 1014.30 1014.98 1015.74 1016.43 1017.25 1018.05 1018.78 1019.45 1019.90 1020.18 1020.67 1021.47 1022.18 1022.75 1023.26 1023.53 1023.97 1024.09 1024.29 1024.66 1025.06 1025.47 1026.00 1026.68 1027.28 1027.75 1028.33 1028.69 1029.13 1029.60 1029.91 1030.09 1030.17 1030.13 1030.05 1029.99 1029.84 1029.77
1010.59 1011.45 1012.17 1012.84 1013.54 1014.32 1014.98 1015.67 1016.31 1016.88 1017.61 1018.51 1019.30 1019.96 1020.26 1020.84 1021.45 1021.99 1022.50 1022.89 1023.11 1023.42 1023.54 1023.93 1024.50 1024.78 1025.20 1025.62 1026.18 1026.88 1027.49 1028.07 1028.61 1029.07 1029.54 1029.88 1030.09 1030.17 1030.16 1030.17 1030.24 1030.24 1030.16
1010.57 1011.32 1012.00 1012.69 1013.33 1014.06 1014.73 1015.38 1016.10 1016.74 1017.37 1018.13 1018.83 1019.51 1020.21 1020.71 1021.09 1021.57 1022.10 1022.48 1022.89 1023.22 1023.48 1023.85 1024.39 1025.02 1025.45 1025.75 1025.98 1026.45 1027.00 1027.59 1028.13 1028.63 1029.34 1029.76 1030.03 1030.25 1030.31 1030.45 1030.53 1030.75 1030.89
1010.74 1011.35 1011.96 1012.73 1013.30 1013.86 1014.52 1015.16 1015.74 1016.34 1017.08 1017.75 1018.32 1018.97 1019.56 1020.17 1020.62 1021.11 1021.68 1022.15 1022.58 1022.98 1023.36 1023.77 1024.26 1024.84 1025.45 1025.96 1026.05 1026.42 1026.85 1027.47 1027.93 1028.46 1028.87 1029.43 1029.95 1030.32 1030.52 1030.64 1030.72 1030.83 1031.01
1010.96 1011.49 1012.17 1012.75 1013.30 1013.86 1014.42 1014.95 1015.59 1016.19 1016.77 1017.27 1017.94 1018.48 1019.03 1019.61 1020.25 1020.85 1021.34 1021.79 1022.30 1022.87 1023.50 1023.89 1024.33 1024.88 1025.49 1025.96 1026.32 1026.67 1027.14 1027.64 1028.15 1028.58 1028.98 1029.40 1029.94 1030.54 1030.73 1030.81 1030.91 1031.06 1031.16
1011.35 1011.98 1012.58 1013.05 1013.70 1014.11 1014.52 1014.94 1015.51 1016.04 1016.52 1017.07 1017.60 1018.11 1018.62 1019.22 1019.84 1020.43 1021.06 1021.68 1022.27 1022.85 1023.43 1024.01 1024.49 1025.03 1025.65 1026.11 1026.46 1026.95 1027.40 1027.83 1028.33 1028.62 1028.87 1029.26 1029.89 1030.54 1030.87 1030.93 1031.09 1031.21 1031.33
Wind_Speed
15 14 17 11 13 13 12 12 12 11 10 9 8 7 9 8 6 7 7 7 9 7 7 6 5 4 2 3 3 2 2 2 3 1 2 3 2 4 5 6 6 7 8
16 16 15 20 14 13 12 12 11 11 9 10 8 8 9 8 7 7 6 7 9 8 6 6 4 1 2 4 3 4 3 4 1 2 3 2 4 8 2 4 6 7 7
15 15 14 15 16 15 14 13 11 11 10 9 8 10 9 8 7 6 7 8 8 8 6 5 2 1 2 2 2 3 3 4 4 3 3 2 2 3 4 2 5 5 7
14 15 15 14 15 13 12 11 11 10 10 9 8 9 8 8 7 7 8 9 8 7 6 5 3 3 2 2 5 3 3 5 4 3 2 3 2 3 3 3 3 4 6
15 15 13 13 13 14 14 12 11 10 9 8 10 9 7 7 5 8 8 9 8 7 5 3 4 6 12 9 5 3 5 4 3 3 3 2 3 4 3 4 2 2 3
15 13 13 14 13 13 14 12 11 9 8 8 9 10 7 5 13 14 10 9 8 7 6 3 2 8 10 14 17 17 10 5 3 2 1 1 4 3 3 3 2 3 3
15 16 15 14 14 13 13 13 13 10 8 8 8 9 7 5 16 16 15 7 7 5 4 4 4 4 7 6 12 14 13 13 10 3 2 1 2 3 3 4 3 2 2
15 16 16 14 13 12 11 12 11 9 10 9 8 8 8 6 16 16 16 7 6 5 4 3 3 3 4 6 5 5 3 2 0 3 3 2 3 5 3 2 1 3 2
15 16 17 16 15 14 13 13 10 11 10 9 8 8 9 8 17 17 13 7 6 3 3 3 4 4 11 11 6 5 3 4 5 8 8 12 13 17 11 1 2 2 2
15 14 14 16 15 13 12 13 10 10 9 8 7 6 11 6 18 16 12 6 7 4 2 2 8 4 11 9 5 5 4 2 2 4 5 5 6 7 14 6 1 3 2
13 13 13 13 14 13 13 10 10 10 10 9 8 5 5 5 8 17 16 5 6 5 3 2 2 10 11 10 7 4 4 4 1 2 2 3 3 4 4 4 4 3 3
18 16 14 14 11 12 14 10 10 10 10 9 9 7 5 5 9 14 12 15 12 6 5 3 3 12 11 9 3 4 6 5 3 3 3 3 3 3 2 2 3 2 1
14 16 14 14 13 13 13 12 10 10 9 8 8 7 6 5 3 12 9 12 19 6 5 8 10 11 11 6 7 7 5 3 3 2 1 2 3 3 1 1 3 3 3
13 12 13 13 14 12 9 9 9 9 9 8 8 8 7 5 5 2 3 5 10 6 10 5 4 4 2 1 2 3 3 3 3 2 1 2 2 3 3 0 1 0 2
11 11 10 9 11 11 9 9 8 9 10 10 8 8 8 8 7 10 9 5 5 6 6 3 2 2 1 1 2 2 2 3 3 1 2 2 2 2 2 2 2 2 3
14 11 10 10 9 9 8 7 11 14 18 17 15 12 8 11 18 18 17 16 16 14 3 3 3 3 3 2 2 1 1 3 2 2 2 2 1 1 2 2 2 2 2
12 11 10 10 9 9 9 10 9 11 18 17 18 20 20 17 21 21 19 18 17 12 3 2 3 4 4 5 5 3 3 1 2 3 2 1 1 2 2 2 2 2 2
11 14 10 9 9 9 8 8 8 9 9 5 12 15 19 19 22 21 20 18 8 8 3 3 3 4 3 5 5 3 3 3 2 2 3 2 2 2 2 2 2 1 2
10 8 8 8 8 8 8 7 7 6 7 6 4 4 11 20 21 21 18 3 4 4 3 2 3 4 3 4 4 4 4 3 3 3 2 2 1 2 2 2 2 3 2
8 11 9 8 7 8 7 8 7 6 7 7 6 3 3 5 7 5 3 3 3 2 3 4 4 4 5 6 5 4 3 3 3 3 2 2 1 2 2 2 2 2 1
7 8 10 8 8 8 8 8 8 7 7 6 5 5 8 7 4 4 4 4 4 3 3 4 5 5 5 6 5 5 4 3 3 4 3 2 2 1 0 1 2 1 3
8 8 7 7 7 7 7 7 7 7 7 7 5 6 9 4 5 5 5 5 4 3 4 6 5 5 6 6 5 5 4 5 3 4 3 3 2 2 1 2 2 2 2
7 8 7 7 7 8 7 7 7 7 7 7 7 7 7 6 6 6 5 4 3 4 4 5 6 4 3 3 4 6 7 6 6 5 5 3 3 3 2 2 2 2 2
7 8 8 7 7 8 7 7 7 9 7 7 7 7 8 7 6 6 5 4 4 4 4 5 5 7 5 3 3 3 4 4 4 4 7 5 4 4 3 2 2 2 2
7 6 6 7 7 6 7 6 6 7 7 7 7 7 7 7 6 6 5 5 6 6 5 5 5 7 8 8 7 7 7 8 5 5 4 5 5 5 3 2 2 1 1
6 6 5 5 4 4 5 5 5 6 6 6 6 6 7 7 6 6 7 7 7 5 6 5 6 8 9 7 8 9 8 8 6 6 4 4 4 3 3 4 4 2 2
Wind_Direction
143 145 136 136 132 133 132 143 145 140 142 140 128 145 120 119 116 107 109 111 97 86 70 67 51 27 346 353 352 343 345 307 285 126 356 18 28 1 359 356 4 9 5
144 143 142 130 132 132 137 139 142 135 136 131 151 136 120 119 121 120 121 113 104 94 86 73 40 43 14 18 4 14 359 327 292 350 23 349 25 350 340 344 358 13 12
138 133 135 132 136 139 140 140 135 134 133 132 149 135 126 126 126 121 122 115 108 107 101 92 50 50 40 18 29 22 336 20 29 60 320 317 324 21 336 345 10 351 17
140 139 140 140 137 134 130 129 130 131 129 158 146 125 129 133 135 135 125 117 115 118 118 126 180 112 108 59 56 16 34 50 32 30 5 344 337 314 324 345 345 29 10
141 142 140 134 131 131 130 133 137 142 144 151 133 118 123 119 143 142 132 124 127 126 133 167 182 117 88 91 84 41 55 57 43 43 24 354 341 344 340 313 299 309 28
136 133 133 133 135 138 133 150 135 159 141 145 136 130 127 120 143 138 132 132 137 133 138 131 77 100 88 87 83 82 86 84 56 74 342 16 291 273 288 305 328 12 353
141 139 139 141 139 145 152 137 163 138 141 144 134 127 122 116 132 128 125 114 115 121 132 156 149 123 116 101 92 83 83 86 89 104 78 342 323 269 287 325 19 52 28
149 148 142 146 146 139 149 151 129 136 150 150 136 133 130 129 135 132 121 104 103 107 123 145 138 154 151 131 113 85 49 348 42 102 116 254 241 278 260 270 314 121 122
161 163 156 151 151 152 163 134 149 151 143 142 140 141 137 140 143 137 122 113 111 127 162 164 144 165 141 131 104 96 44 5 46 81 78 55 35 39 38 45 16 223 30
163 166 162 152 151 165 141 153 155 148 138 132 128 141 152 142 154 151 136 132 136 154 223 212 149 158 136 139 123 126 101 253 62 16 360 5 16 23 42 50 22 93 110
151 151 157 152 148 145 142 143 143 136 132 132 133 131 124 158 162 165 160 155 157 157 171 200 247 144 144 143 135 133 182 155 168 92 7 353 8 14 359 10 41 106 106
142 144 146 144 139 141 138 142 138 138 137 143 146 150 164 177 183 185 190 184 181 168 186 214 192 144 138 132 128 130 120 113 107 60 30 338 350 346 303 324 356 36 140
151 147 146 142 145 145 145 150 145 148 154 158 160 161 167 174 179 189 192 189 188 170 169 177 162 142 140 116 129 97 81 95 99 68 31 283 236 253 249 328 338 341 1
149 149 144 146 143 147 151 155 152 158 163 170 172 175 171 163 175 160 150 159 153 147 168 168 136 108 56 105 57 63 85 109 125 148 186 258 303 19 18 30 131 358 56
138 140 142 147 148 149 158 165 165 174 175 173 179 174 170 182 194 175 159 153 155 156 124 88 77 77 110 32 51 79 79 76 87 39 51 31 10 15 18 352 30 33 82
146 149 154 155 156 156 157 158 177 171 178 184 176 173 185 188 181 182 181 174 167 155 106 136 148 167 182 183 162 137 37 95 103 103 58 36 19 37 62 24 45 58 78
150 150 146 155 155 156 163 167 164 180 180 182 183 185 182 178 180 185 185 181 174 158 130 172 170 181 204 176 167 164 175 181 139 102 98 62 16 45 78 58 34 31 34
144 150 150 153 156 159 161 153 152 157 153 138 178 177 184 176 178 181 178 176 183 175 161 171 193 184 176 156 161 159 129 119 111 112 93 76 34 111 71 69 62 52 29
141 145 144 147 150 147 143 137 136 137 140 137 122 125 176 173 179 184 173 125 159 172 190 182 180 173 145 143 139 138 147 152 145 130 118 108 46 89 59 70 79 54 65
141 141 139 142 135 138 143 146 143 142 144 154 152 150 112 127 162 159 103 126 145 196 193 189 174 145 140 136 143 143 135 139 144 136 136 124 113 98 101 108 98 88 55
144 150 144 144 153 157 159 160 156 153 157 161 157 167 161 157 149 161 148 166 173 194 192 165 153 147 145 148 154 161 154 155 140 144 145 138 129 80 66 126 114 93 98
146 148 152 153 151 153 156 157 161 160 160 163 155 172 164 129 158 171 175 189 193 196 174 154 154 158 162 165 160 156 154 156 153 144 147 143 138 112 116 104 92 93 98
138 143 147 149 152 151 153 157 160 165 165 161 161 163 176 174 171 176 184 182 174 165 146 142 139 129 121 141 150 159 159 174 178 159 148 142 130 118 110 112 139 102 96
139 143 140 143 150 158 163 161 160 163 166 161 162 165 176 183 176 176 173 157 150 145 139 137 143 145 136 120 120 117 109 121 130 149 145 141 139 133 113 110 123 109 139
131 124 129 137 141 145 143 145 150 157 162 163 165 169 173 171 167 169 157 154 151 146 144 140 140 143 141 139 130 121 130 124 123 127 121 120 132 136 124 126 124 94 94
105 106 107 109 121 129 139 146 153 156 156 154 160 165 164 165 162 154 151 152 149 143 135 137 146 140 137 135 130 128 128 126 122 122 125 131 133 130 119 121 121 118 118